Time,TemperatureF,DewpointF,PressureIn,WindDirection,WindDirectionDegrees,WindSpeedMPH,WindSpeedGustMPH,Humidity,HourlyPrecipIn,Conditions,Clouds,dailyrainin,SoftwareType,DateUTC
2013-09-30 19:00:00,60.5,41.3,29.55,NNW,338,3.0,5.0,49,0.00,,---,0.00,VWS V14.01,2013-10-01 01:00:00,
2013-09-30 19:18:00,59.6,40.4,29.55,North,5,1.0,3.0,49,0.00,,---,0.00,VWS V14.01,2013-10-01 01:18:00,
2013-09-30 19:19:00,59.6,41.0,29.55,North,5,0.0,3.0,50,0.00,,---,0.00,VWS V14.01,2013-10-01 01:19:00,
2013-09-30 19:24:00,59.5,40.3,29.55,North,5,2.0,2.0,49,0.00,,---,0.00,VWS V14.01,2013-10-01 01:24:00,
2013-09-30 19:29:00,59.6,40.4,29.55,NNE,15,0.0,3.0,49,0.00,,---,0.00,VWS V14.01,2013-10-01 01:29:00,
2013-09-30 19:34:00,59.5,40.3,29.55,NNE,15,0.0,2.0,49,0.00,,---,0.00,VWS V14.01,2013-10-01 01:34:00,
2013-09-30 19:39:00,59.2,40.1,29.56,NNE,15,0.0,1.0,49,0.00,,---,0.00,VWS V14.01,2013-10-01 01:39:00,
2013-09-30 19:44:00,58.9,39.8,29.56,NNE,15,0.0,0.0,49,0.00,,---,0.00,VWS V14.01,2013-10-01 01:44:00,
2013-09-30 19:49:00,58.9,39.8,29.56,NNE,15,0.0,1.0,49,0.00,,---,0.00,VWS V14.01,2013-10-01 01:49:00,
2013-09-30 19:54:00,59.1,40.0,29.56,NNE,15,0.0,1.0,49,0.00,,---,0.00,VWS V14.01,2013-10-01 01:54:00,
2013-09-30 19:59:00,59.4,39.7,29.56,NNE,15,0.0,0.0,48,0.00,,---,0.00,VWS V14.01,2013-10-01 01:59:00,
2013-09-30 20:04:00,59.6,39.4,29.56,NNE,15,0.0,0.0,47,0.00,,---,0.00,VWS V14.01,2013-10-01 02:04:00,
2013-09-30 20:09:00,59.5,39.8,29.57,NNE,15,0.0,0.0,48,0.00,,---,0.00,VWS V14.01,2013-10-01 02:09:00,
2013-09-30 20:14:00,59.2,39.5,29.57,NNE,15,0.0,0.0,48,0.00,,---,0.00,VWS V14.01,2013-10-01 02:14:00,
2013-09-30 20:19:00,58.9,39.3,29.57,NNE,15,0.0,0.0,48,0.00,,---,0.00,VWS V14.01,2013-10-01 02:19:00,
2013-09-30 20:24:00,58.6,39.0,29.58,NNE,15,0.0,0.0,48,0.00,,---,0.00,VWS V14.01,2013-10-01 02:24:00,
2013-09-30 20:29:00,58.4,39.3,29.58,NNE,15,0.0,1.0,49,0.00,,---,0.00,VWS V14.01,2013-10-01 02:29:00,
2013-09-30 20:34:00,58.8,38.6,29.58,NW,304,4.0,4.0,47,0.00,,---,0.00,VWS V14.01,2013-10-01 02:34:00,
2013-09-30 20:39:00,59.6,38.2,29.58,NW,304,2.0,4.0,45,0.00,,---,0.00,VWS V14.01,2013-10-01 02:39:00,
2013-09-30 20:44:00,59.9,38.5,29.58,NW,304,0.0,2.0,45,0.00,,---,0.00,VWS V14.01,2013-10-01 02:44:00,
2013-09-30 20:49:00,59.4,38.1,29.58,NW,304,0.0,1.0,45,0.00,,---,0.00,VWS V14.01,2013-10-01 02:49:00,
2013-09-30 20:54:00,59.6,37.1,29.59,WNW,299,5.0,5.0,43,0.00,,---,0.00,VWS V14.01,2013-10-01 02:54:00,
2013-09-30 20:59:00,60.4,37.2,29.59,NW,306,3.0,5.0,42,0.00,,---,0.00,VWS V14.01,2013-10-01 02:59:00,
2013-09-30 21:04:00,60.7,37.5,29.59,WNW,303,1.0,3.0,42,0.00,,---,0.00,VWS V14.01,2013-10-01 03:04:00,
2013-09-30 21:09:00,60.5,36.7,29.59,WNW,303,2.0,3.0,41,0.00,,---,0.00,VWS V14.01,2013-10-01 03:09:00,
2013-09-30 21:14:00,60.7,37.5,29.59,WNW,302,1.0,4.0,42,0.00,,---,0.00,VWS V14.01,2013-10-01 03:14:00,
2013-09-30 21:19:00,60.7,36.9,29.59,WNW,301,3.0,5.0,41,0.00,,---,0.00,VWS V14.01,2013-10-01 03:19:00,
2013-09-30 21:24:00,60.9,37.1,29.59,WNW,303,4.0,7.0,41,0.00,,---,0.00,VWS V14.01,2013-10-01 03:24:00,
2013-09-30 21:29:00,61.4,36.9,29.59,WNW,300,4.0,5.0,40,0.00,,---,0.00,VWS V14.01,2013-10-01 03:29:00,
2013-09-30 21:34:00,61.4,36.2,29.59,NW,309,1.0,5.0,39,0.00,,---,0.00,VWS V14.01,2013-10-01 03:34:00,
2013-09-30 21:39:00,61.3,36.2,29.59,WNW,298,0.0,5.0,39,0.00,,---,0.00,VWS V14.01,2013-10-01 03:39:00,
2013-09-30 21:44:00,61.4,35.6,29.59,WNW,296,1.0,4.0,38,0.00,,---,0.00,VWS V14.01,2013-10-01 03:44:00,
2013-09-30 21:49:00,60.7,36.3,29.59,WNW,296,1.0,2.0,40,0.00,,---,0.00,VWS V14.01,2013-10-01 03:49:00,